| time (UTC) | temp F | wind direction | speed knots | gust knots | rain 1hr in | rain 24hr in | rain mn in | humidity % | barometer mb |
| 20260507203936 | 56 | 0.0 | 0.0 | 0.00 | 0.00 | 0.00 | 82 | 1008.8 | |
| 20260507201932 | 56 | 0.0 | 0.0 | 0.00 | 0.00 | 0.00 | 83 | 1008.9 | |
| 20260507195927 | 56 | 0.0 | 0.0 | 0.00 | 0.00 | 0.00 | 84 | 1008.8 | |
| 20260507193923 | 56 | 0.0 | 0.0 | 0.00 | 0.00 | 0.00 | 82 | 1008.7 | |
| 20260507191919 | 57 | 0.0 | 0.0 | 0.00 | 0.00 | 0.00 | 80 | 1008.8 | |
| 20260507185915 | 58 | 0.0 | 0.0 | 0.00 | 0.00 | 0.00 | 80 | 1008.7 | |
| 20260507183911 | 59 | 0.0 | 0.0 | 0.00 | 0.00 | 0.00 | 77 | 1008.8 | |
| 20260507181906 | 63 | 0.0 | 0.0 | 0.00 | 0.00 | 0.00 | 68 | 1008.7 | |
| 20260507175902 | 65 | 0.0 | 0.0 | 0.00 | 0.00 | 0.00 | 62 | 1008.5 | |
| 20260507173858 | 65 | 0.0 | 0.0 | 0.00 | 0.00 | 0.00 | 60 | 1008.5 | |
| 20260507171854 | 66 | 0.0 | 0.0 | 0.00 | 0.00 | 0.00 | 59 | 1008.5 | |
| 20260507165849 | 67 | 0.0 | 0.0 | 0.00 | 0.00 | 0.00 | 58 | 1008.4 | |
| 20260507163845 | 67 | 0.0 | 0.0 | 0.00 | 0.00 | 0.00 | 54 | 1008.5 | |
| 20260507151828 | 69 | 0.0 | 0.0 | 0.00 | 0.00 | 0.00 | 50 | 1008.6 | |
| 20260507145824 | 69 | 0.0 | 0.0 | 0.00 | 0.00 | 0.00 | 48 | 1008.9 | |
| 20260507143820 | 70 | 0.0 | 0.0 | 0.00 | 0.00 | 0.00 | 45 | 1008.9 | |
| 20260507141815 | 73 | 0.0 | 0.0 | 0.00 | 0.00 | 0.00 | 46 | 1009.1 | |
| 20260507135811 | 74 | 0.0 | 0.0 | 0.00 | 0.00 | 0.00 | 44 | 1009.3 | |
| 20260507125758 | 76 | 0.0 | 0.0 | 0.00 | 0.00 | 0.00 | 49 | 1009.8 | |
| 20260507121750 | 76 | 0.0 | 0.0 | 0.00 | 0.00 | 0.00 | 45 | 1009.7 | |
| 20260507113741 | 76 | 0.0 | 0.0 | 0.00 | 0.00 | 0.00 | 44 | 1009.9 | |
| 20260507111737 | 75 | 0.0 | 0.0 | 0.00 | 0.00 | 0.00 | 44 | 1010.0 | |
| 20260507105733 | 75 | 0.0 | 0.0 | 0.00 | 0.00 | 0.00 | 45 | 1010.1 | |
| 20260507101724 | 76 | 0.0 | 0.0 | 0.00 | 0.00 | 0.00 | 46 | 1010.4 | |
| 20260507093716 | 73 | 0.0 | 0.0 | 0.00 | 0.00 | 0.00 | 51 | 1010.3 | |
| 20260507091711 | 74 | 0.0 | 0.0 | 0.00 | 0.00 | 0.00 | 50 | 1010.2 | |
| 20260507085707 | 71 | 0.0 | 0.0 | 0.00 | 0.00 | 0.00 | 50 | 1010.1 | |
| 20260507083703 | 72 | 0.0 | 0.0 | 0.00 | 0.00 | 0.00 | 52 | 1010.2 | |
| 20260507081658 | 70 | 0.0 | 0.0 | 0.00 | 0.00 | 0.00 | 59 | 1010.2 | |
| 20260507075654 | 70 | 0.0 | 0.0 | 0.00 | 0.00 | 0.00 | 60 | 1010.2 | |
| 20260507073649 | 66 | 0.0 | 0.0 | 0.00 | 0.00 | 0.00 | 69 | 1010.1 | |
| 20260507071644 | 65 | 0.0 | 0.0 | 0.00 | 0.00 | 0.00 | 75 | 1010.0 | |
| 20260507065640 | 66 | 0.0 | 0.0 | 0.00 | 0.00 | 0.00 | 77 | 1009.8 | |
| 20260507063636 | 62 | 0.0 | 0.0 | 0.00 | 0.00 | 0.00 | 83 | 1009.8 | |
| 20260507053623 | 58 | 0.0 | 0.0 | 0.00 | 0.00 | 0.00 | 86 | 1009.3 | |
| 20260507045614 | 55 | 0.0 | 0.0 | 0.00 | 0.00 | 0.00 | 87 | 1009.0 | |
| 20260507043610 | 54 | 0.0 | 0.0 | 0.00 | 0.00 | 0.00 | 87 | 1008.8 | |
| 20260507041606 | 52 | 0.0 | 0.0 | 0.00 | 0.00 | 0.00 | 86 | 1008.6 | |
| 20260507035602 | 52 | 0.0 | 0.0 | 0.00 | 0.00 | 0.00 | 88 | 1008.6 | |
| 20260507033557 | 51 | 0.0 | 0.0 | 0.00 | 0.00 | 0.00 | 87 | 1008.6 | |
| 20260507031553 | 53 | 0.0 | 0.0 | 0.00 | 0.00 | 0.00 | 85 | 1008.7 | |
| 20260507025549 | 52 | 0.0 | 0.0 | 0.00 | 0.00 | 0.00 | 88 | 1008.7 | |
| 20260507023545 | 52 | 0.0 | 0.0 | 0.00 | 0.00 | 0.00 | 87 | 1008.7 | |
| 20260507021540 | 52 | 0.0 | 0.0 | 0.00 | 0.00 | 0.00 | 87 | 1008.7 | |
| 20260507015536 | 53 | 0.0 | 0.0 | 0.00 | 0.00 | 0.00 | 88 | 1008.7 | |
| 20260507013532 | 53 | 0.0 | 0.0 | 0.00 | 0.00 | 0.00 | 87 | 1008.7 | |
| 20260507011528 | 53 | 0.0 | 0.0 | 0.00 | 0.00 | 0.00 | 88 | 1008.6 | |
| 20260507005523 | 54 | 0.0 | 0.0 | 0.00 | 0.00 | 0.00 | 88 | 1008.7 | |
| 20260507003519 | 55 | 0.0 | 0.0 | 0.00 | 0.00 | 0.00 | 89 | 1008.7 | |
| 20260507001515 | 54 | 0.0 | 0.0 | 0.00 | 0.00 | 0.00 | 87 | 1008.7 | |
| 20260506235510 | 56 | 0.0 | 0.0 | 0.00 | 0.00 | 0.00 | 86 | 1008.8 | |
| 20260506233505 | 56 | 0.0 | 0.0 | 0.00 | 0.00 | 0.00 | 86 | 1008.7 | |
| 20260506231501 | 56 | 0.0 | 0.0 | 0.00 | 0.00 | 0.00 | 87 | 1008.8 | |
| 20260506225456 | 57 | 0.0 | 0.0 | 0.00 | 0.00 | 0.00 | 86 | 1008.8 | |
| 20260506223451 | 57 | 0.0 | 0.0 | 0.00 | 0.00 | 0.00 | 87 | 1008.9 | |
| 20260506221446 | 57 | 0.0 | 0.0 | 0.00 | 0.00 | 0.00 | 87 | 1008.7 | |
| 20260506215441 | 59 | 0.0 | 0.0 | 0.00 | 0.00 | 0.00 | 85 | 1008.7 | |
| 20260506213437 | 59 | 0.0 | 0.0 | 0.00 | 0.00 | 0.00 | 85 | 1008.6 | |
| 20260506211432 | 59 | 0.0 | 0.0 | 0.00 | 0.00 | 0.00 | 87 | 1008.7 |